Find Starlink 30215

NORAD ID: 57445 Int'l Des: 2023-105 Owner: SPXS Country: US Constellation: starlink operational
LEOCIRCULAR

現在のビュー

3D地球を読み込み中...

About Starlink 30215

Starlink 30215 (NORAD 57445) is a starlink constellation satellite (v2 mini) launched Jul 24, 2023 by SPXS of US. It operates in LEO, CIRCULAR orbit with a mass of 730.00 kg.

次回通過

Passes for default location (London). Set your location on the main map for personalized predictions.

高度履歴

Loading altitude history...

軌道要素

1 57445U 23105R 26264.61734758 -.00000388 00000-0 -45848-5 0 9992
2 57445 43.0011 233.5908 0000915 268.7402 91.3345 15.27573630175388
Epoch: Sep 21, 2026 • Age: 14 hours

現在のステータス

高度 484.5 km
遠地点 / 近地点 N/A
速度 7.63 km/s
衛星直下点 32.49°N, 165.57°W
打ち上げ日 Jul 24, 2023
運用期間 3.1 years
タイプ internet

技術仕様

分類 Payload
質量 730.00 kg
乾燥質量 700.00 kg
長さ 0.30 m
スパン 29.00 m
形状 ? Box + pan
製造者 SPXS
バスタイプ Starlink V2M
フェーズステータス In Orbit
所有者/国 SPXS/US

Most Searched